If you wish to contribute or participate in the discussions about articles you are invited to join SKYbrary as a registered user

 Actions

Anaktuvuk Pass Airport

From SKYbrary Wiki

PAKP
Airport
ICAO: PAKP – IATA: AKP
Summary
Name Anaktuvuk Pass Airport
Region North America
Territory Alaska US.gif
Location , Alaska
Serving Anaktuvuk Pass
Elevation 640.69 m
2,102 ft
2,102 ft640.69 m
Type medium airport
Coordinates 68° 8' 0.96", -151° 44' 34.8"
Runways
Designator Length Width Surface ROPS
2/20 1463 m4,799.869 ft 30 m98.425 ft GRAVEL-G /


METAR
Observation PAKP 210256Z AUTO VRB06KT 9SM FEW080 16/05 A2997 RMK AO2 SLP170 T01560050 57002
Station Anaktuvuk Pass, Anaktuvuk Pass Airport
Date/Time 21 June 2018 02:56:00
Wind direction °
Wind speed 06 kts
Lowest cloud amount few clouds
Temperature 15.6°C
Dew point 5°C
Humidity 49%
QNH hPa
Weather condition n/a